STARLINK-1279, 45360

Orbit data source: Space-Track

STARLINK-1279, 45360 is a payload satellite owned by SpaceX/Seattle (US) in LEO that was launched on Wed, 18 Mar 2020 UTC via an FALCON 9 launch vehicle from the Air Force Eastern Test Range (AFETR). Payload-class satellites include a variety of spacecraft equipped with specific instruments for various scientific and technological missions. These include communications satellites like Starlink; space stations such as the ISS; scientific satellites like the Hubble; Earth observation satellites from companies like Planet Labs, Umbra, and HawkEye 360; GPS; miniature CubeSats for education and research; and military/defense satellites.

Not visible in the next 10 days
Identifier
45360, 2020-019A
Orbit
LEO
Country
Flag of USUS
Related business
Manufacturer
SpaceX/Seattle
Mission
Partially operational Commercial Communications
Bus & Motor
STARLINK, Unknown motor
Mass
260 kg wet, ~248 kg dry
Launch date (UTC)
2020-03-18 (6 years ago)
Launch vehicle
FALCON 9
Launch site
Air Force Eastern Test Range (AFETR)
Object type
Payload
Rocket body
Debris
Shape & HBR
Box + 1 Pan, 10.1 m
Radar Cross Section
13.562 m², Large (>1 m²)

Expand to show TLE details & history
Last TLE update: 4 days ago

TLE from 4 days ago
0 STARLINK-1279
1 45360U 20019A   26154.96732230  .00084739  00000-0  57694-3 0  9995
2 45360  53.0371  34.3748 0007247 100.9223 259.2611 15.74160448344192
Epoch: 2026-06-03T23:12Z
TLE epoch observation values (Epoch: 2026-06-03T23:12:56.646Z)
Latitude
-0.00003°
Longitude
153.72041°
Altitude
348.836 km
Speed
7.7 km/s
True Right ascension
02h 17m 29s
True Declination
0° 00' 00"
Sunlit
Object was in daylight at epoch
Visualization orbit readout
Latitude
Unknown
Longitude
Unknown
Altitude
Unknown
Speed
Unknown
Apparent Right ascension
Unknown
Apparent Declination
Unknown
Sunlit
N/A
Visualization observer readout
Local Sidereal Time
12:09:25
Azimuth
Unknown
Elevation
Unknown
Doppler factor
Unknown
Orbital elements
Apogee altitude
352.177 km
Perigee altitude
342.429 km
Semi-major axis
6,725.44 km
Eccentricity
0.00072
Inclination
53.0371°
RAAN
34.3748°
Arg. of periapsis
100.9223°
True anomaly
259.17952°
Mean anomaly
259.2611°
Eccentric anomaly
259.22031°
Mean motion
3.93516 °/min
Orbital period
91.48 mins
BSTAR
0.00057694
Loading maneuver chart data...
Computing Atmospheric mass density...

Documentation

Showing up to 5 results
|